Location: G�migny
(47.9646°N, 1.6950°E)
Time: 20:15:38
(UTC+00:00)

STARLINK-53 - Pass Details

Date: 23 October 2019
Orbit: 550 x 552 km, 53.0° (Epoch: 14 November)

Event Time Altitude Azimuth Distance (km) Brightness Sun altitude
Rises 17:08:30 0° 277° (W) 2,721 8.8 -3.7°
Reaches altitude 10° 17:10:50 10° 285° (WNW) 1,827 7.5 -4.1°
Maximum altitude 17:14:46 41° 356° (N) 812 4.4 -4.7°
Drops below altitude 10° 17:18:43 10° 68° (ENE) 1,829 5.6 -5.4°
Enters shadow 17:19:27 - 71° (ENE) 2,103 5.9 -5.5°
